This demonstration page uses our WeatherBlox Daily Observations layout. Learn more.

Left ArrowRight Arrow

40.92945, -100.16068

Hourly Observations for April 28, 2016

Temp ( °F °C ) Dew Point ( °F °C ) Humidity (%) Winds ( mph kmh ) Pressure ( in mb ) Visibility ( mi km ) Precip ( " mm )
12:15 am 00:15 Clear 36 2.2 32 0 86 86 WNW 13 20 29.88 1012 10 16 N/A
12:35 am 00:35 Clear 36 2.1 32 0 86 86 WNW 14 22 29.88 1012 10 16 N/A
12:55 am 00:55 Clear 36 2 32 0 87 87 WNW 15 24 29.88 1012 10 16 N/A
1:15 am 01:15 Clear 35 1.7 32 -0.1 88 88 WNW 17 28 29.91 1013 10 16 N/A
1:35 am 01:35 Mostly Cloudy 36 2 32 0 87 87 WNW 17 28 29.88 1012 10 16 N/A
1:55 am 01:55 Partly Cloudy 35 1.8 32 -0.1 87 87 WNW 21 33 29.91 1013 10 16 N/A
2:15 am 02:15 Clear 35 1.7 32 -0.2 87 87 WNW 18 30 29.91 1013 10 16 N/A
2:35 am 02:35 Clear 35 1.6 32 -0.2 88 88 NW 15 24 29.91 1013 10 16 N/A
2:55 am 02:55 Clear 35 1.5 32 -0.2 89 89 WNW 15 24 29.91 1013 10 16 N/A
3:15 am 03:15 Clear 34 1.2 32 -0.2 91 91 WNW 14 22 29.91 1013 10 16 N/A
3:35 am 03:35 Clear 34 1.2 32 -0.2 91 91 WNW 16 26 29.94 1014 10 16 N/A
3:55 am 03:55 Clear 34 1.2 32 -0.2 91 91 NW 14 22 29.94 1014 10 16 N/A
4:15 am 04:15 Mostly Cloudy 35 1.7 32 0 89 89 NW 16 26 29.97 1015 10 16 N/A
4:35 am 04:35 Partly Cloudy 35 1.7 32 -0.2 87 87 NW 16 26 29.97 1015 10 16 N/A
4:55 am 04:55 Mostly Cloudy 35 1.7 32 0 89 89 WNW 10 17 29.97 1015 10 16 N/A
5:15 am 05:15 Cloudy 35 1.6 32 0 89 89 WNW 10 17 30.00 1016 10 16 N/A
5:35 am 05:35 Cloudy 35 1.7 32 0 89 89 WNW 13 20 30.00 1016 10 16 N/A
5:55 am 05:55 Cloudy 35 1.7 32 0 89 89 WNW 13 20 30.00 1016 10 16 N/A
6:15 am 06:15 Cloudy 35 1.7 32 0 89 89 NW 14 22 30.00 1016 10 16 N/A
6:35 am 06:35 Cloudy 36 2.4 32 0 84 84 NNW 17 28 30.00 1016 10 16 N/A
6:55 am 06:55 Cloudy 36 2.3 32 0 85 85 NNW 18 30 30.00 1016 10 16 0.00 0.00
7:15 am 07:15 Mostly Cloudy 36 2.2 32 0 86 86 NNW 16 26 30.00 1016 10 16 N/A
7:35 am 07:35 Partly Cloudy 36 2.3 32 0 85 85 NNW 16 26 30.03 1017 10 16 N/A
7:55 am 07:55 Sunny 37 2.5 32 0.1 84 84 NNW 15 24 30.03 1017 10 16 N/A
8:15 am 08:15 Sunny 38 3.4 33 0.7 83 83 NNW 21 33 30.00 1016 10 16 N/A
8:35 am 08:35 Sunny 40 4.2 34 1.2 81 81 NNW 15 24 30.03 1017 10 16 N/A
8:55 am 08:55 Sunny 41 5 35 1.8 80 80 NNW 17 28 30.03 1017 10 16 N/A
9:15 am 09:15 Partly Cloudy 42 5.5 35 1.9 78 78 N 20 31 30.03 1017 10 16 N/A
9:35 am 09:35 Sunny 42 5.7 35 1.8 76 76 N 17 28 30.03 1017 10 16 N/A
9:55 am 09:55 Sunny 44 6.5 37 2.5 76 76 N 16 26 30.00 1016 10 16 N/A
10:15 am 10:15 Partly Cloudy 45 7.1 37 2.6 73 73 N 14 22 30.03 1017 10 16 N/A
10:35 am 10:35 Mostly Cloudy 45 7 37 2.5 73 73 N 10 17 30.03 1017 7 11 N/A
10:55 am 10:55 Mostly Cloudy 46 7.6 38 3.2 74 74 NNW 15 24 30.03 1017 10 16 N/A
11:15 am 11:15 Mostly Cloudy 47 8.4 38 3.5 72 72 N 13 20 30.03 1017 10 16 N/A
11:35 am 11:35 Mostly Cloudy 47 8.4 38 3.4 71 71 N 9 15 30.03 1017 10 16 N/A
11:55 am 11:55 Cloudy 46 8 37 2.9 70 70 NNW 8 13 30.06 1018 10 16 N/A
12:15 pm 12:15 Cloudy 46 7.9 38 3.2 72 72 N 8 13 30.06 1018 10 16 N/A
12:35 pm 12:35 Cloudy 46 8 38 3.1 71 71 NNW 9 15 30.03 1017 10 16 N/A
12:55 pm 12:55 Cloudy 47 8.5 38 3.4 71 71 N 7 11 30.03 1017 10 16 N/A
1:15 pm 13:15 Cloudy 48 8.8 39 3.7 71 71 N 6 9 30.03 1017 10 16 N/A
1:35 pm 13:35 Cloudy 48 8.9 38 3.6 70 70 N 6 9 30.03 1017 10 16 N/A
1:55 pm 13:55 Cloudy 48 9 39 3.8 70 70 NNW 10 17 30.03 1017 10 16 N/A
2:15 pm 14:15 Cloudy 48 8.7 38 3.5 70 70 NNW 6 9 30.03 1017 10 16 N/A
2:35 pm 14:35 Cloudy 48 8.9 39 3.8 71 71 N 8 13 30.03 1017 10 16 N/A
2:55 pm 14:55 Cloudy 48 9.1 39 3.8 70 70 NNE 7 11 30.06 1018 10 16 N/A
3:15 pm 15:15 Cloudy 48 8.9 39 3.7 70 70 NNW 6 9 30.06 1018 10 16 N/A
3:35 pm 15:35 Cloudy 48 8.7 37 3 68 68 Calm 30.06 1018 10 16 N/A
3:55 pm 15:55 Cloudy 48 8.7 38 3.5 70 70 NNW 6 9 30.06 1018 10 16 N/A
4:15 pm 16:15 Cloudy 48 9 38 3.6 69 69 NNW 6 9 30.06 1018 10 16 N/A
4:35 pm 16:35 Cloudy 48 8.8 38 3.5 70 70 N 6 9 30.03 1017 10 16 N/A
4:55 pm 16:55 Cloudy with Light Rain 47 8.5 39 4 74 74 NNW 7 11 30.03 1017 10 16 N/A
5:15 pm 17:15 Cloudy with Rain 46 8 40 4.2 77 77 N 3 6 30.06 1018 5 8 0.04 1.02
5:35 pm 17:35 Cloudy with Light Rain 46 7.6 40 4.6 82 82 N 6 9 30.06 1018 7 11 0.08 2.03
5:55 pm 17:55 Cloudy with Light Rain 46 7.5 41 4.8 83 83 N 8 13 30.06 1018 10 16 0.09 2.29
6:15 pm 18:15 Cloudy with Light Rain 46 7.6 41 5.1 84 84 NNE 8 13 30.06 1018 10 16 0.01 0.25
6:35 pm 18:35 Cloudy 46 7.8 41 5.1 83 83 NNE 7 11 30.06 1018 10 16 0.01 0.25
6:55 pm 18:55 Cloudy 46 7.7 40 4.6 81 81 N 8 13 30.06 1018 10 16 0.01 0.25
7:15 pm 19:15 Cloudy 46 7.7 40 4.7 82 82 NNE 8 13 30.06 1018 10 16 N/A
7:35 pm 19:35 Cloudy 46 7.6 40 4.6 82 82 NNE 6 9 30.06 1018 10 16 N/A
7:55 pm 19:55 Cloudy 46 7.5 41 4.9 84 84 NNE 6 9 30.06 1018 10 16 N/A
8:15 pm 20:15 Cloudy 45 7.4 40 4.7 83 83 N 5 7 30.06 1018 10 16 N/A
8:35 pm 20:35 Cloudy 45 7.3 41 4.8 84 84 NNW 5 7 30.06 1018 10 16 N/A
8:55 pm 20:55 Cloudy 45 7.1 41 4.8 85 85 NNW 3 6 30.06 1018 10 16 N/A
9:15 pm 21:15 Cloudy 45 7 40 4.7 85 85 N 3 6 30.09 1019 10 16 N/A
9:35 pm 21:35 Cloudy 45 7 41 5 87 87 Calm 30.12 1020 10 16 N/A
9:55 pm 21:55 Cloudy 45 7 41 5 87 87 Calm 30.12 1020 10 16 N/A
10:15 pm 22:15 Cloudy 45 7 42 5.3 89 89 Calm 30.15 1021 10 16 N/A
10:35 pm 22:35 Cloudy 45 7 42 5.3 89 89 Calm 30.15 1021 10 16 N/A
10:55 pm 22:55 Cloudy 45 7 42 5.5 90 90 Calm 30.15 1021 10 16 N/A
11:15 pm 23:15 Cloudy 45 7 41 5.1 88 88 N 5 7 30.15 1021 10 16 N/A
11:35 pm 23:35 Cloudy 45 7 41 5.1 88 88 ENE 5 7 30.15 1021 10 16 N/A
11:55 pm 23:55 Cloudy 45 7 41 5.1 88 88 NE 5 7 30.15 1021 10 16 N/A

Powered by AerisWeather